This is the latest recevied weather packets stored in our database for station/object HB9TJM-8. If no packets are shown the sender has not sent any weather packets the latest 10 day(s).
| Time | Temp. | Humidity | Pressure | Rain* | Wind** | Luminosity | Snow |
|---|---|---|---|---|---|---|---|
| 1777643039 | 18.89° C | 46% | 1023.8 hPa | 0 mm | - | 689 W/m² | - |
| 1777642731 | 18.89° C | 44% | 1023.8 hPa | 0 mm | - | 700 W/m² | - |
| 1777642424 | 18.33° C | 48% | 1023.7 hPa | 0 mm | - | 712 W/m² | - |
| 1777642117 | 18.89° C | 46% | 1023.6 hPa | 0 mm | - | 723 W/m² | - |
| 1777641809 | 18.33° C | 47% | 1024 hPa | 0 mm | - | 736 W/m² | - |
| 1777641502 | 18.33° C | 48% | 1023.9 hPa | 0 mm | - | 745 W/m² | - |
| 1777641195 | 18.89° C | 47% | 1023.8 hPa | 0 mm | - | 751 W/m² | - |
| 1777640887 | 18.89° C | 47% | 1024 hPa | 0 mm | - | 763 W/m² | - |
| 1777640581 | 18.89° C | 49% | 1023.8 hPa | 0 mm | - | 769 W/m² | - |
| 1777640272 | 18.89° C | 45% | 1024.1 hPa | 0 mm | - | 775 W/m² | - |
| 1777639965 | 18.33° C | 48% | 1024 hPa | 0 mm | - | 787 W/m² | - |
| 1777639658 | 18.33° C | 48% | 1023.9 hPa | 0 mm | - | 792 W/m² | - |
| 1777639350 | 18.89° C | 46% | 1024.3 hPa | 0 mm | - | 798 W/m² | - |
| 1777639043 | 18.89° C | 45% | 1024.3 hPa | 0 mm | - | 804 W/m² | - |
| 1777638735 | 18.33° C | 45% | 1024.3 hPa | 0 mm | - | 813 W/m² | - |
| 1777638428 | 18.33° C | 44% | 1024.3 hPa | 0 mm | - | 817 W/m² | - |
| 1777638121 | 18.33° C | 46% | 1024.2 hPa | 0 mm | - | 823 W/m² | - |
| 1777637812 | 18.33° C | 43% | 1023.9 hPa | 0 mm | - | 827 W/m² | - |
| 1777637504 | 17.78° C | 44% | 1024.3 hPa | 0 mm | - | 829 W/m² | - |
| 1777637197 | 17.78° C | 45% | 1024.5 hPa | 0 mm | - | 832 W/m² | - |
| 1777636890 | 17.78° C | 46% | 1024.5 hPa | 0 mm | - | 835 W/m² | - |
| 1777636583 | 17.22° C | 44% | 1024.3 hPa | 0 mm | - | 836 W/m² | - |
| 1777636275 | 17.22° C | 47% | 1024.5 hPa | 0 mm | - | 842 W/m² | - |
| 1777635968 | 16.67° C | 45% | 1024.3 hPa | 0 mm | - | 846 W/m² | - |
| 1777635661 | 16.67° C | 45% | 1024.4 hPa | 0 mm | - | 841 W/m² | - |
* Rain latest hour (hover to see other rain measurements)
** Current wind speed in m/s (hover to see current wind gust speed)